STARLINK-2456 (47846 NORAD) Tracking and Keplerian Element Data

This shows tracking and keplerian element data for the satellite.

Feedback or suggestion? Click here.




ElementValue
Catalog47846
NameSTARLINK-2456
Epoch Orbit1676
Epoch Day170.42208956
Epoch Year2021
RAAN72.1465
Inclination53.057
Eccentricity0.0002258
Argument of Perigee84.8537
Mean Anonmoly275.271
Mean Motion15.06396704
Decay Rate-6.84E-06
L11 47846U 21018BM 21170.42208956 -.00000684 00000-0 -26996-4 0 9994
L22 47846 53.0570 72.1465 0002258 84.8537 275.2710 15.06396704 16763

Live tracking and technical data element details for STARLINK-2456 (NORAD 47846). STARLINK-2456 can be tracked NOW for your location showing map with azimuth and elevation plus other details from your city location.

Track the satellite on the map from your city or location and see movement details for azimuth, elevation, latitude, longitude, range, height, and movement on the map or in text.







IsCatalogInMostPopularTable: catalog: 47846, numindb: 48
Update: records affected: 1



GetName: 47846 STARLINK-2456

Hit Count: updated at: Mon, 21 Jun 2021 03:47:45 GMT